Home > Weather > Steinfurt > Past weeks

Flag for Germany Weather for the Past 2 Weeks in Steinfurt, North Rhine-Westphalia, Germany

Now
36 °F

Chilly.


Feels Like: 36 °F
Forecast: 40 / 63 °F
Wind: 1 mph from Southwest

Location: Rheine-Bentlage

Current Time: May 4, 2016 at 3:48:42 AM

Latest Report: May 4, 2016 at 3:20 AM


Visibility: N/A

Pressure: 30.36 "Hg

Humidity: 100%

Dew Point: 36 °F

Location of SteinfurtLocation

Historic Weather in Steinfurt — Graph

°F

Steinfurt Temperature Yesterday

Maximum temperature yesterday: 57 °F (at 2:20 PM)
Minimum temperature yesterday: 45 °F (at 11:20 PM)
Average temperature yesterday: 52 °F

High & Low Weather Summary for the Past Weeks

 TemperatureHumidityPressure
High66 °F (May 2, 2:20 PM)100% (Apr 20, 3:20 AM)30.48 "Hg (Apr 20, 3:20 AM)
Low32 °F (Apr 20, 6:20 AM)35% (Apr 28, 2:20 PM)29.39 "Hg (Apr 26, 8:20 AM)
Average45 °F73%30.02 "Hg
* Reported Apr 19 2:20 AM — May 4 2:20 AM, Steinfurt, Weather by CustomWeather, © 2016

Note: Actual official high and low records may vary slightly from our data, if they occured in-between our weather recording intervals... More about our weather records

Advertising

Steinfurt Weather History for the Previous 24 Hours

Scroll right to see more
 ConditionsComfort  
Time TempWeatherWind HumidityBarometerVisibility
2:20 AM
Wed, May 4
37 °FChilly.1 mph93%30.36 "HgN/A
1:20 AM37 °FChilly.1 mph93%30.36 "HgN/A
12:20 AM39 °FChilly.3 mph93%30.36 "HgN/A
11:20 PM
Tue, May 3
45 °FQuite cool.3 mph76%30.33 "HgN/A
10:20 PM46 °FCool.7 mph66%30.33 "HgN/A
9:20 PM50 °FCool.9 mph58%30.30 "HgN/A
8:20 PM54 °FCool.12 mph51%30.27 "HgN/A
7:20 PM54 °FCool.14 mph47%30.24 "HgN/A
6:20 PM55 °FRefreshingly cool.14 mph44%30.24 "HgN/A
5:20 PM55 °FRefreshingly cool.14 mph47%30.21 "HgN/A
4:20 PM57 °FRefreshingly cool.17 mph44%30.21 "HgN/A
3:20 PM57 °FRefreshingly cool.16 mph44%30.18 "HgN/A
2:20 PM57 °FPassing clouds.16 mph44%30.18 "HgN/A
1:20 PM55 °FPassing clouds.14 mph59%30.15 "HgN/A
12:20 PM52 °FPassing clouds.10 mph67%30.15 "HgN/A
11:20 AM52 °FScattered clouds.16 mph62%30.15 "HgN/A
10:20 AM52 °FScattered clouds.14 mph72%30.12 "HgN/A
9:20 AM48 °FBroken clouds.9 mph87%30.12 "HgN/A
8:20 AM48 °FLight rain. Partly sunny.8 mph87%30.09 "HgN/A
7:20 AM46 °FLight rain. Partly sunny.6 mph93%30.07 "HgN/A
6:20 AM48 °FCool.10 mph87%30.04 "HgN/A
5:20 AM52 °FCool.3 mph88%30.04 "HgN/A
4:20 AM54 °FCool.5 mph82%30.04 "HgN/A
3:20 AM54 °FCool.6 mph77%30.04 "HgN/A
Weather by CustomWeather, © 2016

See weather overviewHow to use our weather pages